CW9785 Weather Reports


Display with metric or nautical units.
time (UTC)temp
F
wind
direction
speed
MPH
gust
MPH
rain 1hr
in
rain 24hr
in
rain mn
in
humidity
%
barometer
mb
20260510230534 70 18 4.0 10.0 0.00 0.15 0.15 34 1021.2
20260510230043 69 84 3.0 10.0 0.00 0.15 0.15 36 1021.3
20260510225525 69 25 3.0 10.0 0.00 0.15 0.15 35 1021.1
20260510225035 69 69 5.0 9.0 0.00 0.15 0.15 34 1021.1
20260510224538 69 34 4.0 10.0 0.00 0.15 0.15 36 1021.1
20260510224045 70 30 5.0 12.0 0.00 0.15 0.15 33 1021.1
20260510223535 70 102 5.0 12.0 0.00 0.15 0.15 36 1021.2
20260510223044 69 30 6.0 12.0 0.00 0.15 0.15 34 1021.2
20260510222524 70 32 6.0 12.0 0.00 0.15 0.15 35 1021.3
20260510222036 69 27 7.0 12.0 0.00 0.15 0.15 37 1021.2
20260510221546 69 12 3.0 12.0 0.00 0.15 0.15 35 1021.3
20260510221027 69 39 5.0 10.0 0.00 0.15 0.15 38 1021.3
20260510220609 70 111 4.0 10.0 0.00 0.15 0.15 36 1021.3
20260510220026 70 69 4.0 11.0 0.00 0.15 0.15 36 1021.4
20260510215537 70 22 4.0 11.0 0.00 0.15 0.15 35 1021.5
20260510215019 70 47 6.0 12.0 0.00 0.15 0.15 37 1021.5
20260510214530 70 105 5.0 12.0 0.00 0.15 0.15 35 1021.5
20260510214041 70 9 5.0 12.0 0.00 0.15 0.15 38 1021.5
20260510213523 70 60 5.0 12.0 0.00 0.15 0.15 36 1021.6
20260510213031 70 65 5.0 11.0 0.00 0.15 0.15 38 1021.6
20260510212541 69 333 1.0 13.0 0.00 0.15 0.15 36 1021.7
20260510212047 70 94 5.0 13.0 0.00 0.15 0.15 34 1021.7
20260510211529 70 23 9.0 13.0 0.00 0.15 0.15 36 1021.7
20260510211040 69 71 6.0 12.0 0.00 0.15 0.15 36 1021.7
20260510210522 69 333 5.0 11.0 0.00 0.15 0.15 39 1021.8
20260510210031 69 39 6.0 11.0 0.00 0.15 0.15 39 1021.8
20260510205541 69 242 3.0 11.0 0.00 0.15 0.15 38 1021.8
20260510205023 69 83 7.0 11.0 0.00 0.15 0.15 36 1021.9
20260510204535 69 28 5.0 13.0 0.00 0.15 0.15 38 1021.8
20260510204045 69 23 5.0 14.0 0.00 0.15 0.15 37 1021.9
20260510203526 69 19 8.0 14.0 0.00 0.15 0.15 37 1022.0
20260510203034 69 30 5.0 14.0 0.00 0.15 0.15 41 1022.0
20260510202525 69 12 3.0 14.0 0.00 0.15 0.15 39 1021.9
20260510202055 69 350 7.0 14.0 0.00 0.15 0.15 40 1022.0
20260510201536 69 360 7.0 14.0 0.00 0.15 0.15 37 1022.0
20260510201047 69 51 6.0 16.0 0.00 0.15 0.15 35 1022.0
20260510200553 69 45 8.0 16.0 0.00 0.15 0.15 38 1022.2
20260510200021 68 28 5.0 15.0 0.00 0.15 0.15 36 1022.2
20260510195522 68 22 7.0 15.0 0.00 0.15 0.15 39 1022.1
20260510195033 68 88 7.0 18.0 0.00 0.15 0.15 38 1022.2
20260510194543 68 34 11.0 18.0 0.00 0.15 0.15 38 1022.1
20260510194032 68 34 10.0 19.0 0.00 0.15 0.15 37 1022.1
20260510193533 68 24 10.0 21.0 0.00 0.15 0.15 38 1022.2
20260510193022 68 21 8.0 21.0 0.00 0.15 0.15 42 1022.3
20260510192533 68 18 11.0 20.0 0.00 0.15 0.15 40 1022.2
20260510192106 67 26 11.0 19.0 0.00 0.15 0.15 43 1022.3
20260510191526 67 19 10.0 18.0 0.00 0.15 0.15 42 1022.2
20260510191017 67 38 7.0 20.0 0.00 0.15 0.15 44 1022.5
20260510190519 67 70 9.0 20.0 0.00 0.15 0.15 41 1022.5
20260510190027 67 25 9.0 18.0 0.00 0.15 0.15 42 1022.4
20260510185538 67 19 11.0 18.0 0.00 0.15 0.15 43 1022.5
20260510185019 66 58 10.0 18.0 0.00 0.15 0.15 44 1022.5
20260510184526 66 59 11.0 18.0 0.01 0.15 0.15 44 1022.5
20260510184037 66 84 6.0 12.0 0.01 0.15 0.15 45 1022.6
20260510183519 66 318 7.0 13.0 0.01 0.15 0.15 45 1022.7
20260510183027 66 98 7.0 17.0 0.01 0.15 0.15 47 1022.6
20260510182538 66 104 5.0 18.0 0.01 0.15 0.15 45 1022.7
20260510182020 66 51 12.0 18.0 0.01 0.15 0.15 45 1022.8
20260510181528 66 130 7.0 14.0 0.01 0.15 0.15 47 1022.8
20260510181039 65 69 6.0 12.0 0.01 0.15 0.15 48 1022.9
20260510180522 65 57 5.0 11.0 0.01 0.15 0.15 48 1022.9
20260510180049 65 355 5.0 15.0 0.01 0.15 0.15 47 1022.9
20260510175539 65 63 6.0 15.0 0.01 0.15 0.15 50 1022.9
20260510175020 65 53 6.0 14.0 0.01 0.15 0.15 50 1022.9
20260510174550 64 23 6.0 14.0 0.00 0.14 0.14 49 1022.8
20260510174020 64 54 6.0 15.0 0.00 0.14 0.14 52 1022.8
20260510173531 64 44 9.0 16.0 0.00 0.14 0.14 55 1022.8
20260510173036 63 26 10.0 16.0 0.00 0.14 0.14 52 1022.8
20260510172517 63 75 7.0 14.0 0.00 0.14 0.14 56 1022.8
20260510172028 63 360 4.0 15.0 0.00 0.14 0.14 60 1022.9
20260510171539 62 39 9.0 15.0 0.00 0.14 0.14 58 1022.8
20260510171020 61 24 6.0 17.0 0.00 0.14 0.14 61 1022.8
20260510170531 61 24 7.0 17.0 0.00 0.14 0.14 61 1022.6
20260510165552 61 51 7.0 17.0 0.00 0.14 0.14 62 1022.6
20260510165032 60 47 8.0 14.0 0.00 0.14 0.14 65 1022.5
20260510164543 60 74 8.0 14.0 0.00 0.14 0.14 66 1022.6
20260510164032 59 104 7.0 13.0 0.00 0.14 0.14 67 1022.6
20260510163543 59 65 7.0 13.0 0.00 0.14 0.14 68 1022.5
20260510163023 58 26 6.0 16.0 0.00 0.14 0.14 68 1022.4
20260510162534 58 51 7.0 16.0 0.00 0.14 0.14 71 1022.3
20260510162045 58 39 7.0 16.0 0.00 0.14 0.14 73 1022.4
20260510161527 57 82 5.0 14.0 0.00 0.14 0.14 75 1022.4
20260510161034 56 147 7.0 14.0 0.01 0.14 0.14 78 1022.3
20260510160536 55 32 8.0 13.0 0.01 0.14 0.14 80 1022.3
20260510160022 54 63 5.0 15.0 0.01 0.14 0.14 82 1022.2
20260510155533 53 38 9.0 15.0 0.02 0.14 0.14 85 1022.3
20260510155035 53 32 9.0 15.0 0.02 0.14 0.14 87 1022.3
20260510154525 52 38 7.0 12.0 0.02 0.14 0.14 87 1022.5
20260510154056 51 32 5.0 10.0 0.03 0.14 0.14 88 1022.3
20260510153545 51 39 6.0 11.0 0.03 0.14 0.14 88 1022.2
20260510153023 50 37 6.0 10.0 0.03 0.14 0.14 89 1021.9
20260510152534 50 82 2.0 9.0 0.04 0.14 0.14 89 1021.8
20260510152045 50 52 6.0 9.0 0.04 0.14 0.14 89 1021.8
20260510151547 49 63 4.0 8.0 0.04 0.14 0.14 90 1021.6
20260510151036 49 53 3.0 5.0 0.03 0.13 0.13 90 1021.8
20260510150548 49 63 2.0 4.0 0.03 0.13 0.13 90 1022.0
20260510150035 49 42 1.0 3.0 0.04 0.13 0.13 90 1022.2
20260510145533 49 301 0.0 3.0 0.03 0.12 0.12 89 1022.4
20260510145024 49 301 0.0 4.0 0.03 0.12 0.12 89 1022.6
20260510144536 49 311 2.0 6.0 0.03 0.12 0.12 89 1022.7
20260510144036 49 333 3.0 9.0 0.02 0.11 0.11 89 1022.5
20260510143526 49 355 4.0 9.0 0.03 0.11 0.11 89 1022.2
20260510143025 49 23 5.0 9.0 0.03 0.11 0.11 89 1022.2
20260510142536 49 68 5.0 10.0 0.02 0.10 0.10 89 1022.2
20260510142047 49 50 5.0 13.0 0.03 0.10 0.10 88 1022.3
20260510141537 49 34 7.0 13.0 0.03 0.10 0.10 88 1022.2
20260510141019 49 23 9.0 17.0 0.03 0.10 0.10 88 1022.3
20260510140530 49 28 7.0 17.0 0.03 0.10 0.10 88 1022.4
20260510140039 49 13 10.0 16.0 0.02 0.09 0.09 88 1022.4
20260510135541 49 27 9.0 16.0 0.02 0.09 0.09 88 1022.2
20260510135031 49 26 9.0 16.0 0.02 0.09 0.09 88 1022.0
20260510134542 49 22 9.0 15.0 0.03 0.09 0.09 88 1021.9
20260510134032 49 15 8.0 17.0 0.03 0.09 0.09 87 1021.9
20260510133529 49 32 9.0 18.0 0.02 0.08 0.08 87 1021.6
20260510133039 50 42 11.0 18.0 0.02 0.08 0.08 87 1021.5
20260510132548 50 15 11.0 17.0 0.02 0.08 0.08 86 1021.3
20260510132017 50 5 9.0 17.0 0.01 0.07 0.07 86 1021.0
20260510131519 50 5 9.0 17.0 0.01 0.07 0.07 86 1020.9
20260510131030 50 13 12.0 17.0 0.01 0.07 0.07 86 1020.8
20260510130520 51 360 9.0 16.0 0.01 0.07 0.07 87 1020.9
20260510130020 51 9 10.0 17.0 0.01 0.07 0.07 87 1020.9
20260510125531 51 5 9.0 19.0 0.01 0.07 0.07 87 1020.9
20260510125022 51 26 10.0 16.0 0.01 0.07 0.07 88 1020.5
20260510124522 51 9 10.0 16.0 0.00 0.06 0.06 88 1020.2
20260510124034 51 28 11.0 17.0 0.00 0.06 0.06 88 1019.9
20260510123545 51 28 10.0 20.0 0.00 0.06 0.06 88 1019.6
20260510123030 51 34 14.0 22.0 0.00 0.06 0.06 87 1019.6
20260510122557 51 37 16.0 22.0 0.00 0.06 0.06 87 1019.2
20260510122018 51 48 14.0 19.0 0.00 0.06 0.06 87 1018.9
20260510121559 51 26 11.0 18.0 0.00 0.06 0.06 87 1018.8
20260510121019 51 13 13.0 19.0 0.01 0.06 0.06 86 1018.9
20260510120530 51 26 12.0 19.0 0.01 0.06 0.06 86 1018.8
20260510120100 51 351 11.0 19.0 0.01 0.06 0.06 85 1018.7
20260510115521 51 10 11.0 18.0 0.01 0.06 0.06 85 1018.7
20260510115032 51 360 11.0 18.0 0.03 0.06 0.06 85 1018.8
20260510114542 51 355 12.0 22.0 0.05 0.06 0.06 85 1019.0
20260510114023 52 355 14.0 22.0 0.06 0.06 0.06 86 1018.7
20260510113534 52 5 12.0 18.0 0.06 0.06 0.06 86 1018.5
20260510113043 52 53 9.0 16.0 0.06 0.06 0.06 86 1018.1
20260510112525 52 107 4.0 16.0 0.06 0.06 0.06 85 1017.3
20260510112017 52 109 10.0 17.0 0.06 0.06 0.06 84 1016.8
20260510111518 52 111 10.0 17.0 0.05 0.05 0.05 83 1016.9
20260510111029 53 110 8.0 16.0 0.05 0.05 0.05 81 1016.8
20260510110536 53 113 10.0 17.0 0.05 0.05 0.05 80 1016.7
20260510110046 54 107 11.0 17.0 0.05 0.05 0.05 78 1016.8
20260510105523 54 111 7.0 12.0 0.05 0.05 0.05 76 1017.1
20260510105033 55 63 7.0 12.0 0.03 0.03 0.03 74 1017.4
20260510104524 55 80 5.0 15.0 0.01 0.01 0.01 71 1017.8
20260510104033 56 25 9.0 15.0 0.00 0.00 0.00 68 1018.2
20260510103544 57 342 9.0 14.0 0.00 0.00 0.00 64 1018.1
20260510103045 57 82 9.0 14.0 0.00 0.00 0.00 62 1017.3
20260510102534 57 115 7.0 12.0 0.00 0.00 0.00 62 1017.4
20260510102024 57 69 5.0 12.0 0.00 0.00 0.00 62 1017.5
20260510101526 57 82 5.0 12.0 0.00 0.00 0.00 62 1017.3
20260510101108 57 89 5.0 12.0 0.00 0.00 0.00 62 1017.1
20260510100544 57 54 5.0 13.0 0.00 0.00 0.00 62 1016.9
20260510100050 57 40 6.0 13.0 0.00 0.00 0.00 62 1017.1
20260510095520 57 63 6.0 18.0 0.00 0.00 0.00 63 1017.2
20260510095020 57 88 9.0 18.0 0.00 0.00 0.00 63 1017.1
20260510094531 57 39 10.0 19.0 0.00 0.00 0.00 63 1016.8
20260510094021 57 43 11.0 22.0 0.00 0.00 0.00 63 1016.6
20260510093552 57 68 12.0 22.0 0.00 0.00 0.00 63 1016.5
20260510093040 57 23 12.0 22.0 0.00 0.00 0.00 63 1016.6
20260510092521 57 32 10.0 21.0 0.00 0.00 0.00 64 1016.4
20260510092032 57 5 12.0 21.0 0.00 0.00 0.00 64 1016.4
20260510091544 57 28 10.0 21.0 0.00 0.00 0.00 65 1016.4
20260510091025 57 39 12.0 20.0 0.00 0.00 0.00 66 1016.3
20260510090536 57 24 11.0 20.0 0.00 0.00 0.00 66 1016.3
20260510090045 57 23 11.0 21.0 0.00 0.00 0.00 66 1016.2
20260510085542 57 14 12.0 21.0 0.00 0.00 0.00 67 1016.2
20260510085102 57 40 12.0 20.0 0.00 0.00 0.00 67 1016.2
20260510084520 57 38 12.0 20.0 0.00 0.00 0.00 67 1016.3
20260510084031 57 23 12.0 23.0 0.00 0.00 0.00 67 1016.2
20260510083542 57 30 13.0 23.0 0.00 0.00 0.00 67 1015.9
20260510083043 57 32 15.0 22.0 0.00 0.00 0.00 67 1015.9
20260510082532 57 33 15.0 24.0 0.00 0.00 0.00 67 1015.9
20260510082044 57 20 13.0 24.0 0.00 0.00 0.00 68 1015.9
20260510081526 57 36 11.0 20.0 0.00 0.00 0.00 68 1016.1
20260510081036 57 36 13.0 20.0 0.00 0.00 0.00 68 1016.2
20260510080546 57 45 12.0 23.0 0.00 0.00 0.00 69 1016.3
20260510080021 57 71 11.0 23.0 0.00 0.00 0.00 69 1016.5
20260510075533 57 25 12.0 20.0 0.00 0.00 0.00 70 1016.5
20260510075044 57 30 12.0 23.0 0.00 0.00 0.00 70 1016.6
20260510074526 57 9 13.0 23.0 0.00 0.00 0.00 70 1016.7
20260510074036 57 14 11.0 17.0 0.00 0.00 0.00 71 1016.5
20260510073543 57 16 12.0 18.0 0.00 0.00 0.00 71 1016.6
20260510073022 57 37 13.0 18.0 0.00 0.00 0.00 71 1016.5
20260510072553 57 35 8.0 18.0 0.00 0.00 0.00 71 1016.4
20260510072043 57 11 10.0 16.0 0.00 0.00 0.00 72 1016.4
20260510071525 57 333 10.0 18.0 0.00 0.00 0.00 72 1016.4
20260510071034 57 28 8.0 18.0 0.00 0.00 0.00 73 1016.2
20260510070545 57 37 10.0 18.0 0.00 0.00 0.00 73 1015.9
20260510070025 56 26 12.0 19.0 0.00 0.00 0.00 75 1015.8
20260510065535 56 34 11.0 20.0 0.00 0.00 0.00 77 1015.8
20260510065046 56 10 12.0 21.0 0.00 0.00 0.00 79 1015.8
20260510064527 56 17 13.0 21.0 0.00 0.00 0.00 81 1015.5
20260510064018 56 42 13.0 18.0 0.00 0.00 0.00 82 1015.2
20260510063529 56 49 11.0 16.0 0.00 0.00 0.00 82 1015.1
20260510063058 55 17 10.0 16.0 0.00 0.00 0.00 82 1015.2
20260510062519 55 15 10.0 15.0 0.00 0.00 0.00 83 1014.7
20260510062029 55 18 10.0 14.0 0.00 0.00 0.00 83 1014.5
20260510061536 55 30 7.0 13.0 0.00 0.00 0.00 83 1014.3
20260510061045 55 28 7.0 13.0 0.00 0.00 0.00 83 1014.1
20260510060559 55 28 7.0 12.0 0.00 0.00 0.00 82 1014.0
20260510060037 55 26 6.0 12.0 0.00 0.00 0.00 82 1014.0
20260510055548 55 44 6.0 12.0 0.00 0.00 0.00 82 1014.0
20260510055038 55 38 7.0 13.0 0.00 0.00 0.00 82 1013.9
20260510054549 56 51 7.0 13.0 0.00 0.00 0.00 81 1013.9
20260510054027 56 41 7.0 11.0 0.00 0.00 0.00 81 1013.6
20260510053537 56 44 7.0 11.0 0.00 0.00 0.00 81 1013.7
20260510053047 56 38 5.0 13.0 0.00 0.00 0.00 80 1013.6
20260510052557 56 26 7.0 13.0 0.00 0.00 0.00 80 1013.4
20260510052043 56 26 7.0 10.0 0.00 0.00 0.00 79 1013.1
20260510051524 56 41 6.0 10.0 0.00 0.00 0.00 79 1013.0
20260510051034 56 26 6.0 10.0 0.00 0.00 0.00 78 1012.8
20260510050545 56 24 5.0 10.0 0.00 0.00 0.00 77 1012.8
20260510050031 57 26 5.0 10.0 0.00 0.00 0.00 75 1012.9
20260510045532 57 28 4.0 6.0 0.00 0.00 0.00 74 1012.7
20260510045042 58 57 5.0 8.0 0.00 0.00 0.00 73 1012.8
20260510044532 58 46 3.0 9.0 0.00 0.00 0.00 71 1012.8
20260510044042 59 36 5.0 9.0 0.00 0.00 0.00 69 1012.7
20260510043524 60 34 3.0 6.0 0.00 0.00 0.00 67 1012.6
20260510043033 61 35 5.0 7.0 0.00 0.00 0.00 66 1012.5
20260510042543 62 43 3.0 8.0 0.00 0.00 0.00 65 1012.6
20260510042025 63 22 4.0 8.0 0.00 0.00 0.00 65 1012.5
20260510041537 63 47 2.0 7.0 0.00 0.00 0.00 64 1012.3
20260510041018 63 85 4.0 12.0 0.00 0.00 0.00 64 1012.0
20260510040523 63 78 4.0 12.0 0.00 0.00 0.00 64 1011.7
20260510040032 63 82 6.0 10.0 0.00 0.00 0.00 64 1011.4
20260510035524 64 100 7.0 10.0 0.00 0.00 0.00 64 1011.2
20260510035024 64 99 5.0 12.0 0.00 0.00 0.00 64 1011.2
20260510034534 64 109 7.0 12.0 0.00 0.00 0.00 63 1011.0
20260510034044 65 111 7.0 10.0 0.00 0.00 0.00 63 1010.9
20260510033554 65 101 7.0 10.0 0.00 0.00 0.00 63 1010.9
20260510033033 65 85 6.0 10.0 0.00 0.00 0.00 62 1010.8
20260510032524 65 76 6.0 11.0 0.00 0.00 0.00 62 1010.6
20260510032036 66 86 7.0 12.0 0.00 0.00 0.00 62 1010.6
20260510031533 66 102 9.0 16.0 0.00 0.00 0.00 61 1010.6
20260510031023 66 109 9.0 16.0 0.00 0.00 0.00 61 1010.5
20260510030526 66 106 7.0 10.0 0.00 0.00 0.00 62 1010.5
20260510030104 66 67 3.0 8.0 0.00 0.00 0.00 62 1010.3
20260510025544 67 82 4.0 13.0 0.00 0.00 0.00 61 1010.0
20260510025030 67 81 6.0 13.0 0.00 0.00 0.00 60 1009.7
20260510024541 68 84 5.0 14.0 0.00 0.00 0.00 60 1009.3
20260510024023 68 70 7.0 19.0 0.00 0.00 0.00 59 1008.9
20260510023534 68 113 11.0 19.0 0.00 0.00 0.00 59 1008.8
20260510023043 68 102 9.0 14.0 0.00 0.00 0.00 58 1008.6
20260510022522 68 79 8.0 18.0 0.00 0.00 0.00 58 1008.4
20260510022104 68 142 8.0 18.0 0.00 0.00 0.00 58 1008.2
20260510021525 69 107 9.0 14.0 0.00 0.00 0.00 58 1008.3
20260510021035 69 52 7.0 13.0 0.00 0.00 0.00 57 1008.4
20260510020547 70 56 7.0 13.0 0.00 0.00 0.00 57 1007.9
20260510020027 71 109 6.0 12.0 0.00 0.00 0.00 56 1007.1
20260510015558 72 94 6.0 10.0 0.00 0.00 0.00 55 1007.0
20260510015045 72 88 7.0 10.0 0.00 0.00 0.00 54 1006.8
20260510014526 73 108 5.0 9.0 0.00 0.00 0.00 52 1006.5
20260510014036 74 94 5.0 7.0 0.00 0.00 0.00 50 1006.3
20260510013543 75 123 4.0 9.0 0.00 0.00 0.00 49 1006.0
20260510013024 75 136 5.0 11.0 0.00 0.00 0.00 48 1005.6
20260510012534 76 142 5.0 11.0 0.00 0.00 0.00 47 1005.5
20260510012045 77 133 6.0 10.0 0.00 0.00 0.00 45 1005.4
20260510011527 78 94 5.0 8.0 0.00 0.00 0.00 42 1005.4
20260510011038 78 121 4.0 8.0 0.00 0.00 0.00 40 1005.3
20260510010548 78 146 4.0 9.0 0.00 0.00 0.00 40 1005.1
20260510010028 78 140 5.0 9.0 0.00 0.00 0.00 39 1005.1
20260510005559 79 157 3.0 8.0 0.00 0.00 0.00 39 1005.1
20260510005029 79 186 5.0 9.0 0.00 0.00 0.00 39 1005.0
20260510004540 79 165 5.0 9.0 0.00 0.00 0.00 39 1005.0
20260510004022 80 217 4.0 12.0 0.00 0.00 0.00 39 1004.9
20260510003532 80 200 6.0 12.0 0.00 0.00 0.00 39 1004.9
20260510003019 80 209 3.0 9.0 0.00 0.00 0.00 38 1004.9
20260510002521 80 229 4.0 9.0 0.00 0.00 0.00 37 1004.9
20260510002032 81 205 4.0 8.0 0.00 0.00 0.00 37 1005.0
20260510001539 81 211 4.0 9.0 0.00 0.00 0.00 37 1005.0
20260510001020 81 209 5.0 9.0 0.00 0.00 0.00 36 1005.0
20260510000532 81 200 6.0 10.0 0.00 0.00 0.00 36 1005.1
20260510000040 81 221 5.0 10.0 0.00 0.00 0.00 36 1005.0
20260509235550 81 184 3.0 10.0 0.00 0.00 0.00 36 1005.0
20260509235039 81 180 6.0 11.0 0.00 0.00 0.00 36 1005.0
20260509234521 81 218 6.0 11.0 0.00 0.00 0.00 36 1005.1
20260509234053 81 237 7.0 12.0 0.00 0.00 0.00 36 1005.1
20260509233543 81 165 2.0 10.0 0.00 0.00 0.00 38 1005.1
20260509233030 81 143 5.0 13.0 0.00 0.00 0.00 37 1005.2
20260509232602 81 167 5.0 15.0 0.00 0.00 0.00 38 1005.1
20260509232022 81 150 7.0 17.0 0.00 0.00 0.00 38 1005.2
20260509231533 81 142 8.0 17.0 0.00 0.00 0.00 38 1005.2
20260509231040 81 167 8.0 17.0 0.00 0.00 0.00 39 1005.3